格洛纳斯M-719 COSMOS 2432 [GLONASS-M]

导读

COSMOS 2432(又名宇宙2432)是独联体(CIS)发射的格洛纳斯(GLONASS)导航卫星,于2007年10月26日发射升空,作为俄全球卫星导航系统组网卫星,它配备铯原子钟、太阳能电池板等设备,主要承担全球导航定位、授时服务任务,是格洛纳斯系统补网完善星座的重要组成,支撑系统持续提供定位服务。

基本信息
目录编号:
32276
目录名称:
COSMOS 2432 (GLONASS)
国际标识:
2007-052B
轨道中心:
EARTH
卫星名称:
格洛纳斯M-719
卫星全名:
格洛纳斯M-719 COSMOS 2432 [GLONASS-M]
卫星状态:
在轨 (已飞行6899 天)
发射日期:
2007-10-26 UTC
国别 :
俄罗斯(独联体) (CIS)
星等 :
--
该卫星已列入 空间交会检测服务 Space Conjunction Data Service (SCDS) ,当前飞行风险评估等级: 无高风险
轨道信息
数据来源 国际轨道数据 AOE轨道数据
星历时间 2026-09-14T23:36:52+0800
1天前
查看轨道信息
2026-09-15T10:00:00+0800
20小时前
查看轨道信息
半长轴 25507.945km 25507.913km
偏心率 0.0008668 0.0008752
轨道倾角 65.537° 65.537°
近地点辐角 307.451° 307.346°
升交点赤经 313.049° 313.035°
平近点角 78.010° 50.094°
近地点 19107.697km 19107.451km
远地点 19151.919km 19152.101km
周期 675.730分钟 675.728分钟
每日圈数 2.13103 2.131034
详细信息
平衡模式:
三轴稳定
覆盖范围:
全球
运营商:
列舍特涅夫卫星信息系统
运营商所在国:
俄罗斯
制造商(研发单位):
列舍特涅夫卫星信息系统
制造商所在国:
俄罗斯
使用方式:
暂无
卫星简介
格洛纳斯(GLONASS )是苏联/俄罗斯研制卫星导航系统。标准配置为24颗卫星,其中18颗卫星就能保证该系统为俄罗斯境内用户提供全部服务。该卫星仍在工作。
2D轨道图
3D轨道图
轨道高度分析图
轨道倾角分析图
轨道综合分析图
查看轨道综合分析图
与全量物体交会距离演化趋势 订阅飞行安全评估服务
与全量物体交会风险概率演化趋势 订阅飞行安全评估服务